• In Hungary
  • List of Countries
  • For 7 days
  • Water Temperature
  • Satellite Maps
  • Weather Map
  • News
  • Weather Widgets
  • user-avatar
    Login

    Hourly Weather Puerto Galera

    Today, 21 February, Wednesday

    Time Temperature Precipitation Wind Pressure Humidity
    00:00 +27°C° 0.1 mm 4 mps 754 mmHg 91%
    01:00 +26°C° 0.1 mm 4 mps 754 mmHg 91%
    02:00 +26°C° 0 mm 4 mps 753 mmHg 93%
    03:00 +26°C° 0.1 mm 4 mps 753 mmHg 93%
    04:00 +26°C° 0.1 mm 4 mps 753 mmHg 93%
    05:00 +26°C° 0.1 mm 4 mps 753 mmHg 93%
    06:00 +27°C° 0.3 mm 4 mps 754 mmHg 88%
    07:00 +28°C° 0.3 mm 4 mps 754 mmHg 83%
    08:00 +29°C° 0.3 mm 4 mps 754 mmHg 78%
    09:00 +32°C° 0 mm 4 mps 754 mmHg 70%
    10:00 +34°C° 0 mm 4 mps 754 mmHg 62%
    11:00 +35°C° 0 mm 4 mps 754 mmHg 54%
    12:00 +35°C° 0 mm 4 mps 754 mmHg 55%
    13:00 +35°C° 0 mm 4 mps 753 mmHg 55%
    14:00 +35°C° 0 mm 4 mps 753 mmHg 55%
    15:00 +34°C° 0 mm 4 mps 752 mmHg 60%
    16:00 +33°C° 0 mm 4 mps 752 mmHg 64%
    17:00 +33°C° 0 mm 4 mps 752 mmHg 68%
    18:00 +30°C° 0.2 mm 4 mps 752 mmHg 74%
    19:00 +29°C° 0.2 mm 4 mps 753 mmHg 80%
    20:00 +27°C° 0.2 mm 4 mps 753 mmHg 87%
    21:00 +27°C° 0.1 mm 4 mps 753 mmHg 88%
    22:00 +27°C° 0.1 mm 4 mps 753 mmHg 89%
    23:00 +26°C° 0.1 mm 4 mps 754 mmHg 90%

    Tomorrow, 22 February, Thursday

    Time Temperature Precipitation Wind Pressure Humidity
    00:00 +26°C° 0.4 mm 4 mps 754 mmHg 91%
    01:00 +26°C° 0.4 mm 4 mps 754 mmHg 92%
    02:00 +26°C° 0.4 mm 4 mps 753 mmHg 93%
    03:00 +26°C° 0.5 mm 4 mps 753 mmHg 93%
    04:00 +26°C° 0.5 mm 4 mps 753 mmHg 93%
    05:00 +26°C° 0.5 mm 4 mps 753 mmHg 92%
    06:00 +27°C° 0 mm 4 mps 754 mmHg 87%
    07:00 +28°C° 0 mm 4 mps 754 mmHg 82%
    08:00 +29°C° 0 mm 4 mps 754 mmHg 76%
    09:00 +32°C° 0 mm 4 mps 754 mmHg 68%
    10:00 +34°C° 0 mm 4 mps 754 mmHg 60%
    11:00 +35°C° 0 mm 4 mps 754 mmHg 51%
    12:00 +36°C° 0 mm 4 mps 754 mmHg 49%
    13:00 +36°C° 0 mm 4 mps 753 mmHg 46%
    14:00 +37°C° 0 mm 4 mps 753 mmHg 44%
    15:00 +35°C° 0 mm 4 mps 752 mmHg 49%
    16:00 +34°C° 0 mm 4 mps 752 mmHg 54%
    17:00 +33°C° 0 mm 4 mps 752 mmHg 59%
    18:00 +30°C° 0 mm 4 mps 753 mmHg 68%
    19:00 +28°C° 0 mm 4 mps 753 mmHg 77%
    20:00 +27°C° 0 mm 4 mps 754 mmHg 86%
    21:00 +27°C° 0 mm 4 mps 754 mmHg 87%
    22:00 +27°C° 0 mm 4 mps 755 mmHg 89%
    23:00 +26°C° 0 mm 4 mps 755 mmHg 91%

    Day after tomorrow, 23 February, Friday

    Time Temperature Precipitation Wind Pressure Humidity
    00:00 +26°C° 0 mm 4 mps 755 mmHg 91%
    01:00 +26°C° 0 mm 4 mps 755 mmHg 91%
    02:00 +26°C° 0 mm 4 mps 754 mmHg 91%
    03:00 +26°C° 0.1 mm 4 mps 754 mmHg 91%
    04:00 +26°C° 0.1 mm 5 mps 754 mmHg 91%
    05:00 +26°C° 0.1 mm 5 mps 754 mmHg 91%
    06:00 +27°C° 0 mm 5 mps 754 mmHg 86%
    07:00 +28°C° 0 mm 5 mps 755 mmHg 81%
    08:00 +29°C° 0 mm 5 mps 755 mmHg 76%
    09:00 +30°C° 0 mm 5 mps 756 mmHg 67%
    10:00 +33°C° 0 mm 5 mps 756 mmHg 58%
    11:00 +35°C° 0 mm 5 mps 756 mmHg 49%
    12:00 +35°C° 0 mm 4 mps 755 mmHg 46%
    13:00 +36°C° 0 mm 4 mps 754 mmHg 43%
    14:00 +36°C° 0 mm 4 mps 753 mmHg 39%
    15:00 +35°C° 0 mm 4 mps 753 mmHg 45%
    16:00 +34°C° 0 mm 5 mps 753 mmHg 50%
    17:00 +32°C° 0 mm 5 mps 753 mmHg 56%
    18:00 +30°C° 0 mm 5 mps 753 mmHg 65%
    19:00 +28°C° 0 mm 5 mps 754 mmHg 74%
    20:00 +27°C° 0 mm 5 mps 755 mmHg 83%
    21:00 +27°C° 0 mm 6 mps 755 mmHg 84%
    22:00 +26°C° 0 mm 6 mps 755 mmHg 85%
    23:00 +26°C° 0 mm 6 mps 756 mmHg 86%

    24 February, Saturday

    Time Temperature Precipitation Wind Pressure Humidity
    00:00 +26°C° 0 mm 6 mps 755 mmHg 86%
    01:00 +26°C° 0 mm 6 mps 755 mmHg 86%
    02:00 +26°C° 0 mm 6 mps 754 mmHg 87%
    03:00 +26°C° 0 mm 6 mps 754 mmHg 87%
    04:00 +26°C° 0 mm 5 mps 754 mmHg 88%
    05:00 +26°C° 0 mm 5 mps 754 mmHg 89%
    06:00 +27°C° 0.1 mm 5 mps 755 mmHg 85%
    07:00 +28°C° 0.1 mm 6 mps 755 mmHg 81%
    08:00 +29°C° 0.1 mm 6 mps 756 mmHg 76%
    09:00 +30°C° 0.1 mm 6 mps 756 mmHg 71%
    10:00 +32°C° 0.1 mm 5 mps 756 mmHg 65%
    11:00 +34°C° 0.1 mm 5 mps 756 mmHg 59%
    12:00 +34°C° 0 mm 5 mps 755 mmHg 56%
    13:00 +35°C° 0 mm 5 mps 754 mmHg 54%
    14:00 +36°C° 0 mm 5 mps 753 mmHg 51%
    15:00 +35°C° 0 mm 5 mps 753 mmHg 56%
    16:00 +34°C° 0 mm 5 mps 753 mmHg 60%
    17:00 +33°C° 0 mm 5 mps 753 mmHg 65%
    18:00 +30°C° 0 mm 5 mps 754 mmHg 72%
    19:00 +29°C° 0 mm 5 mps 754 mmHg 79%
    20:00 +28°C° 0 mm 5 mps 755 mmHg 86%
    21:00 +27°C° 0 mm 5 mps 755 mmHg 87%
    22:00 +27°C° 0 mm 5 mps 755 mmHg 87%
    23:00 +27°C° 0 mm 5 mps 755 mmHg 88%

    25 February, Sunday

    Time Temperature Precipitation Wind Pressure Humidity
    00:00 +26°C° 0 mm 5 mps 754 mmHg 89%
    01:00 +26°C° 0 mm 5 mps 754 mmHg 89%
    02:00 +26°C° 0 mm 4 mps 753 mmHg 90%
    03:00 +26°C° 0.1 mm 4 mps 753 mmHg 90%
    04:00 +26°C° 0.1 mm 4 mps 753 mmHg 90%
    05:00 +26°C° 0.1 mm 4 mps 753 mmHg 90%
    06:00 +27°C° 0.2 mm 4 mps 753 mmHg 86%
    07:00 +28°C° 0.2 mm 4 mps 754 mmHg 83%
    08:00 +29°C° 0.2 mm 4 mps 754 mmHg 79%
    09:00 +30°C° 0.4 mm 4 mps 754 mmHg 75%
    10:00 +32°C° 0.4 mm 4 mps 754 mmHg 71%
    11:00 +33°C° 0.4 mm 4 mps 754 mmHg 67%
    12:00 +32°C° 0.6 mm 4 mps 753 mmHg 69%
    13:00 +32°C° 0.6 mm 4 mps 753 mmHg 72%
    14:00 +32°C° 0.6 mm 4 mps 752 mmHg 75%
    15:00 +30°C° 0.5 mm 4 mps 752 mmHg 78%
    16:00 +29°C° 0.5 mm 4 mps 752 mmHg 81%
    17:00 +29°C° 0.5 mm 4 mps 752 mmHg 84%
    18:00 +28°C° 0.3 mm 4 mps 753 mmHg 86%
    19:00 +27°C° 0.3 mm 4 mps 753 mmHg 88%
    20:00 +27°C° 0.3 mm 4 mps 754 mmHg 91%
    21:00 +27°C° 0.1 mm 4 mps 754 mmHg 91%
    22:00 +27°C° 0.1 mm 4 mps 754 mmHg 91%
    23:00 +26°C° 0.1 mm 3 mps 754 mmHg 91%

    26 February, Monday

    Time Temperature Precipitation Wind Pressure Humidity
    00:00 +26°C° 0 mm 3 mps 753 mmHg 91%
    01:00 +26°C° 0 mm 3 mps 753 mmHg 91%
    02:00 +26°C° 0 mm 3 mps 752 mmHg 91%
    03:00 +26°C° 0.1 mm 3 mps 752 mmHg 92%
    04:00 +26°C° 0.1 mm 3 mps 752 mmHg 92%
    05:00 +26°C° 0.1 mm 3 mps 752 mmHg 92%
    06:00 +27°C° 0.2 mm 4 mps 753 mmHg 90%
    07:00 +27°C° 0.2 mm 4 mps 753 mmHg 89%
    08:00 +27°C° 0.2 mm 4 mps 754 mmHg 87%
    09:00 +29°C° 0.2 mm 4 mps 754 mmHg 81%
    10:00 +30°C° 0.2 mm 4 mps 753 mmHg 75%
    11:00 +32°C° 0.2 mm 4 mps 753 mmHg 68%
    12:00 +32°C° 0.5 mm 4 mps 753 mmHg 71%
    13:00 +32°C° 0.5 mm 4 mps 752 mmHg 73%
    14:00 +32°C° 0.5 mm 4 mps 752 mmHg 76%
    15:00 +30°C° 0.4 mm 4 mps 752 mmHg 79%
    16:00 +29°C° 0.4 mm 4 mps 752 mmHg 82%
    17:00 +28°C° 0.4 mm 4 mps 752 mmHg 86%
    18:00 +28°C° 0.2 mm 4 mps 752 mmHg 88%
    19:00 +27°C° 0.2 mm 4 mps 753 mmHg 90%
    20:00 +27°C° 0.2 mm 4 mps 753 mmHg 92%
    21:00 +26°C° 0.1 mm 4 mps 753 mmHg 92%
    22:00 +26°C° 0.1 mm 4 mps 753 mmHg 92%
    23:00 +26°C° 0.1 mm 4 mps 753 mmHg 92%
    Show more